Simultaneous Nadir Overpasses (SNOs) Predictions

Prediction of SNOs between GOES-15 and NOAA-20 Satellite Orbit:

Table of predicted SNOs for the next 14.0 days since TLE Epoch: 4/15/2023
Index Date Time (GOES-15) GOES-15 Lat,Lon NOAA-20 Lat,Lon Distance(km) Time Diff (sec)
1 04/15/2023 10:12:36 0.17,-133.67 -0.20,-132.13 175.44 80
2 04/16/2023 22:37:16 -0.15,-134.39 -0.87,-137.46 350.78 80
3 04/17/2023 22:15:53 -0.16,-134.88 0.24,-132.95 218.98 80
4 04/19/2023 10:40:25 0.15,-135.66 0.73,-138.27 297.17 80
5 04/20/2023 10:19:03 0.16,-136.15 -0.37,-133.76 272.11 80
6 04/21/2023 22:43:43 -0.14,-136.86 -0.62,-139.10 255.11 80
7 04/22/2023 22:22:21 -0.15,-137.34 0.49,-134.60 314.00 80
8 04/24/2023 10:46:52 0.14,-138.12 0.53,-139.90 203.29 80
9 04/25/2023 10:25:30 0.15,-138.59 -0.58,-135.39 365.32 80
10 04/26/2023 22:50:09 -0.14,-139.30 -0.45,-140.73 163.11 80
11 04/27/2023 22:28:46 -0.15,-139.77 0.66,-136.22 405.46 80
